Location: Hawks Ness
(60.2333°N, 1.1667°W)
Time: 01:06:30
(UTC+00:00)

Cosmos 1726 - Pass Details

Date: 29 January 2020
Orbit: 483 x 500 km, 82.5° (Epoch: 25 February)

Event Time Altitude Azimuth Distance (km) Brightness Sun altitude
Exits shadow 06:29:54 20° 318° (NW) 1,182 3.5 -14.1°
Drops below altitude 10° 06:32:03 10° 353° (N) 1,682 4.6 -13.9°
Sets 06:34:33 0° 9° (N) 2,567 5.7 -13.6°
